Location: Bishop�s Knoyle
(51.0728°N, 2.1714°W)
Time: 02:00:33
(UTC+00:00)

ISS - Pass Details

Date: 02 October 2021
Orbit: 417 x 423 km, 51.6° (Epoch: 27 October)

Event Time Altitude Azimuth Distance (km) Brightness Sun altitude
Rises 19:03:26 0° 285° (WNW) 2,367 2.1 -13.3°
Reaches altitude 10° 19:05:37 10° 276° (W) 1,502 0.5 -13.6°
Maximum altitude 19:08:45 36° 209° (SSW) 687 -2.6 -14.1°
Enters shadow 19:10:45 18° 151° (SSE) 1,099 -2.0 -14.4°
